#timestamp,LO_Frequency,Hit,StdDev 
1642287615.0,286046999.0,N
1642287615.9,286046999.0,N
1642287635.8,286046998.6,N
1642287655.6,286047000.7,N
1642287675.5,286046998.5,N
1642287695.3,286046998.8,N
1642287715.1,286046996.7,Y
1642287735.9,286046999.6,P
1642287755.7,286046996.9,P
1642287775.5,286046999.1,N
1642287795.4,286046998.1,N
1642287815.2,286046998.3,N
1642287835.1,286046998.6,N
1642287836.0,286046998.6,N
1642287855.8,286047000.3,N
1642287875.7,286046999.9,N
1642287895.5,286047000.2,N
1642287915.3,286047000.5,N
1642287935.2,286047000.2,N
1642287955.9,286047000.3,N
1642287975.7,286047000.2,N
1642287995.6,286047001.7,N
1642288015.4,286047002.4,N
1642288035.2,286046999.7,N
1642288055.1,286047002.2,N
1642288056.0,286047002.2,N
1642288075.8,286047002.1,N
1642288095.7,286047002.7,N
1642288115.5,286047001.6,N
1642288135.3,286047002.8,N
1642288155.2,286047000.4,N
1642288175.0,286047000.4,N
1642288175.9,286047000.4,N
1642288195.8,286047002.3,N
1642288215.6,286047002.4,N
1642288235.4,286047000.6,N
1642288255.3,286047000.5,N
1642288275.1,286046998.8,N
1642288295.9,286047000.8,N
1642288315.7,286046998.9,N
1642288335.5,286046998.7,N
1642288355.4,286046998.1,N
1642288375.2,286046999.6,N
1642288395.0,286046996.9,N
1642288396.0,286046996.9,N
1642288415.8,286046998.3,N
1642288435.6,286047000.4,N
1642288455.5,286047000.6,N
1642288475.3,286047000.2,N
1642288495.1,286047000.7,N
1642288515.9,286047002.0,N
1642288535.7,286047000.5,N
1642288555.6,286047000.5,N
1642288575.4,286047001.3,N
1642288595.2,286047002.6,N
1642288615.1,286047004.0,N
1642288616.0,286047004.0,N
1642288635.8,286047004.3,N
1642288655.7,286047003.9,N
1642288675.5,286047001.3,N
1642288695.3,286047002.0,N
1642288715.2,286047000.4,N
1642288735.9,286047002.2,N
1642288755.7,286047002.0,N
1642288775.6,286047002.0,N
1642288795.4,286047001.8,N
1642288815.3,286047002.4,N
1642288835.1,286047001.5,N
1642288836.0,286047001.5,N
1642288855.8,286047002.6,N
1642288875.7,286047001.3,N
1642288895.5,286047004.0,N
1642288915.3,286047002.0,N
1642288935.2,286047000.5,N
1642288955.0,286047000.0,N
1642288955.9,286047000.0,N
1642288975.8,286046999.7,N
1642288995.6,286046998.1,N
1642289015.4,286046998.3,N
1642289035.3,286047000.8,N
1642289055.1,286046998.8,N
1642289075.8,286046996.6,N
1642289095.7,286046997.7,N
1642289115.5,286046999.1,N
1642289135.4,286046998.1,N
1642289155.2,286047000.0,N
1642289175.0,286047002.0,N
1642289175.9,286047002.0,N
1642289195.8,286047001.5,N
1642289215.6,286047001.5,N
1642289235.4,286047002.5,N
1642289255.3,286047001.6,N
1642289275.1,286047001.9,N
1642289295.9,286047002.0,N
1642289315.7,286047004.3,N
1642289335.5,286047003.0,N
1642289355.7,286047004.2,N
1642289375.5,286047005.5,N
1642289395.4,286047003.4,N
1642289415.2,286047004.4,N
1642289435.1,286047004.0,N
1642289436.0,286047004.0,N
1642289455.8,286047004.4,N
1642289475.6,286047002.4,N
1642289495.5,286047000.2,N
1642289515.3,286047000.5,N
1642289535.1,286047001.9,N
1642289555.9,286047000.0,N
1642289575.7,286047002.7,N
1642289595.6,286047002.5,N
1642289615.4,286046999.8,N
1642289635.2,286046999.9,N
1642289655.1,286046999.7,N
1642289656.0,286046999.7,N
1642289675.8,286047002.2,N
1642289695.7,286047002.3,N
1642289715.5,286047002.5,N
1642289735.3,286047001.8,N
1642289755.2,286047002.1,N
1642289775.9,286047003.9,N
1642289795.7,286047003.8,N
1642289815.6,286047001.4,N
1642289835.4,286047004.3,N
1642289855.3,286047004.1,N
1642289875.1,286047003.9,N
1642289876.0,286047003.9,N
1642289895.8,286047004.1,N
1642289915.7,286047004.4,N
1642289935.5,286047003.5,N
1642289955.3,286047003.6,N
1642289975.2,286047002.9,N
1642289995.0,286047002.9,N
1642289995.9,286047002.9,N
1642290015.8,286047004.0,N
1642290035.6,286047003.5,N
1642290055.4,286047003.3,N
1642290075.3,286047005.6,Y
1642290095.1,286047004.4,P
1642290115.9,286047002.2,N
1642290135.7,286047001.1,N
1642290155.5,286047001.2,N
1642290175.4,286046999.4,N
1642290195.2,286046996.9,N
1642290215.0,286046999.5,N
1642290215.9,286046999.5,N
1642290235.8,286046996.8,N
1642290255.6,286046999.3,N
1642290275.5,286046998.9,N
1642290295.3,286046998.2,N
1642290315.1,286046998.5,N
1642290335.9,286046999.4,N
1642290355.7,286046997.0,N
1642290375.5,286046997.4,N
1642290395.4,286046996.8,N
1642290415.2,286046999.5,N
1642290435.1,286047000.8,N
1642290436.0,286047000.8,N
1642290455.8,286047001.1,N
1642290475.6,286047000.6,N
1642290495.5,286047000.3,N
1642290515.3,286047000.3,N
1642290535.1,286047000.6,N
1642290555.9,286046998.6,N
1642290575.7,286047000.8,N
1642290595.6,286047000.9,N
1642290615.4,286047000.2,N
1642290635.2,286047000.1,N
1642290655.1,286046998.3,N
1642290656.0,286046998.3,N
1642290675.8,286047000.7,N
1642290695.6,286046999.8,N
1642290715.5,286047000.8,N
1642290735.3,286046998.5,N
1642290755.2,286047001.2,N
1642290775.9,286046999.8,N
1642290795.7,286046999.7,N
1642290815.6,286047002.8,N
1642290835.4,286047001.0,N
1642290855.3,286047000.3,N
1642290875.1,286046998.6,N
1642290876.0,286046998.6,N
1642290895.8,286046999.3,N
1642290915.7,286047000.5,N
1642290935.5,286047000.7,N
1642290955.3,286047001.2,N
1642290975.2,286047002.8,N
1642290995.0,286046999.8,N
1642290995.9,286046999.8,N
1642291015.8,286047000.3,N
1642291035.6,286047000.9,N
1642291055.4,286047002.6,N
1642291075.3,286047001.4,N
1642291095.1,286047000.8,N
1642291115.9,286046998.1,N
1642291135.7,286046999.4,N
1642291155.5,286046998.2,N
1642291175.4,286047001.1,N
1642291195.2,286047000.6,N
